Temperature
24 23 23 23 25 25 28 31 31 31 31 31 30 30 29 28 27 25 25 24 23 22 22 22 21 21 21 20 20 19 19 19 19 19 18 18 18 18 18 18 18 18 18 18 18 18 18 18 18
24 23 24 26 25 27 29 31 31 31 31 30 30 30 29 28 28 26 25 24 22 22 22 22 21 21 21 20 20 19 19 19 19 19 18 18 18 18 18 18 18 18 18 18 18 18 18 18 18
24 24 26 28 27 29 30 32 31 32 31 31 30 30 28 27 27 26 24 23 22 21 22 22 21 21 21 20 20 20 19 19 19 19 18 18 18 18 18 18 18 18 18 18 18 18 18 18 18
23 26 28 29 30 32 32 32 32 32 31 31 30 29 28 26 26 25 24 23 22 21 21 22 21 21 21 20 20 20 19 19 19 19 18 18 18 18 18 18 18 18 18 18 18 18 18 18 18
25 27 28 29 31 33 33 33 32 32 31 31 30 29 27 26 26 25 24 23 22 21 21 22 21 21 20 20 20 20 19 19 19 19 18 18 18 18 18 18 18 18 18 18 18 18 18 18 18
27 29 28 29 31 33 33 33 33 32 31 30 30 29 26 25 25 25 24 23 22 21 21 22 21 21 20 20 20 19 19 19 19 18 18 18 18 18 18 18 18 18 18 18 18 18 18 18 18
28 29 29 30 32 32 33 33 33 32 32 30 30 29 25 25 24 24 24 23 22 21 21 21 21 20 20 20 20 19 19 19 19 18 18 18 18 18 18 18 18 18 18 18 18 18 18 18 18
29 30 30 31 32 32 33 33 32 32 31 30 30 28 25 24 24 24 24 23 22 21 20 21 20 20 20 20 19 19 19 19 19 19 18 18 18 18 18 18 18 18 18 18 18 18 18 18 18
29 30 30 31 32 33 33 33 33 32 31 30 29 27 26 25 24 24 24 23 22 21 20 20 19 20 19 19 19 19 19 19 19 19 19 19 18 18 18 18 18 18 18 18 18 18 18 18 18
31 30 31 33 34 33 33 33 33 32 31 30 28 26 25 24 24 24 23 23 22 21 20 20 19 19 19 18 19 19 18 19 18 18 19 18 18 18 18 18 18 18 18 18 18 18 18 18 18
32 31 33 33 34 33 33 33 33 32 31 30 28 26 25 24 24 24 23 23 22 21 20 20 19 19 19 19 19 18 18 18 18 18 18 18 18 18 18 18 18 18 18 18 18 18 18 18 18
32 33 33 33 33 33 33 33 33 32 31 29 28 27 25 24 24 23 23 23 22 21 21 20 20 19 19 19 19 18 18 18 18 18 18 18 18 18 18 18 18 18 18 18 18 18 18 18 18
32 33 33 33 33 33 33 33 33 31 30 29 28 27 25 24 24 23 23 22 22 21 21 20 20 19 19 19 19 19 18 18 18 18 18 18 18 18 18 18 18 18 18 18 18 18 18 18 18
33 33 33 33 33 33 33 33 32 30 30 29 28 27 25 24 23 23 22 22 21 21 20 20 19 19 19 19 19 19 19 19 18 18 18 18 18 18 18 18 18 18 18 18 18 18 17 18 17
32 32 32 33 33 34 33 32 31 30 30 29 28 27 25 24 23 23 22 21 21 20 20 19 19 19 19 19 19 19 19 19 19 18 18 18 18 18 18 18 18 18 17 18 18 17 17 18 18
32 32 31 33 34 34 33 31 31 30 30 29 28 26 25 24 23 22 21 21 20 20 19 19 19 19 19 19 18 19 19 19 18 18 18 18 18 18 18 18 18 18 17 17 18 18 18 18 18
31 31 31 32 34 34 33 32 32 30 30 29 28 26 25 23 23 22 21 21 20 20 19 19 19 19 19 18 18 18 19 18 18 18 18 18 18 18 18 18 18 18 17 17 18 18 18 17 17
31 31 32 32 33 33 33 32 32 31 30 29 28 26 25 23 22 22 21 20 20 19 19 19 18 18 18 18 18 18 18 18 18 18 18 18 18 18 18 17 17 17 17 17 17 17 17 17 17
32 32 32 32 34 33 32 32 32 32 31 29 28 26 25 23 22 22 21 20 19 19 19 18 18 18 18 18 18 18 18 18 18 18 18 18 17 18 18 17 17 17 17 17 17 17 17 17 17
32 31 31 32 33 33 32 32 32 31 30 29 28 26 25 24 22 21 20 19 19 19 18 18 18 18 18 18 18 18 18 18 18 18 18 18 17 17 17 17 17 17 17 17 17 17 17 17 17
31 31 31 32 32 33 32 30 30 29 29 29 28 27 26 24 22 21 20 19 19 18 18 18 18 18 18 18 18 18 18 17 17 17 18 17 17 17 17 17 17 17 17 17 17 17 17 17 17
31 32 32 32 31 31 31 29 28 29 28 29 28 27 26 24 23 21 20 19 19 18 18 18 18 18 18 17 18 18 18 17 18 18 17 17 17 16 17 17 17 17 17 17 17 16 17 17 17
31 33 32 32 31 30 30 28 28 29 28 29 29 28 26 25 23 22 20 20 19 18 18 18 18 17 17 17 18 18 17 17 17 17 17 17 17 16 16 16 16 17 16 16 16 16 16 16 17
32 32 31 31 30 27 27 27 27 29 29 30 29 28 26 25 23 22 20 19 19 18 18 17 17 17 17 17 17 17 17 17 17 17 17 17 17 16 16 16 16 16 16 16 16 16 16 16 17
32 30 29 28 27 26 25 25 27 30 31 31 30 28 26 25 23 22 20 19 18 18 18 17 17 17 17 17 17 17 17 17 17 17 17 17 17 17 17 16 16 16 16 16 16 16 16 16 16
31 30 28 27 27 25 23 23 27 31 31 30 29 28 26 25 24 22 20 19 19 18 18 17 17 17 17 17 17 17 17 17 17 17 17 17 17 17 17 16 16 16 16 16 16 16 16 16 16
30 31 32 30 29 26 25 25 26 29 30 30 29 28 27 25 24 22 20 19 19 18 18 17 17 17 17 17 17 17 17 17 17 17 17 17 17 17 17 16 16 16 16 15 16 16 15 16 16
32 32 31 30 28 27 27 25 24 26 27 29 29 28 26 25 24 22 21 19 19 18 18 17 17 17 17 16 16 16 17 17 16 17 17 17 17 17 16 16 16 16 16 15 16 15 15 15 16
31 31 30 30 30 28 27 25 25 24 26 28 29 28 26 25 24 22 21 20 19 18 17 17 17 17 16 16 16 16 16 16 16 17 17 17 17 16 16 16 16 16 15 15 16 15 15 15 15
32 31 30 28 28 29 28 27 27 26 27 28 29 28 27 25 24 22 21 20 19 18 18 17 17 17 17 16 16 16 16 16 16 17 17 16 16 16 16 16 16 16 16 16 16 16 15 15 15
Wind_Speed
11 13 11 7 4 5 3 7 11 12 11 10 8 6 9 12 9 8 12 17 24 23 21 21 19 19 18 17 17 17 16 16 15 14 13 12 12 12 12 12 12 12 12 12 12 13 13 13 13
11 14 11 6 4 3 5 8 11 11 9 6 6 7 11 13 12 12 15 19 24 22 20 20 20 19 18 18 18 17 16 16 15 14 13 12 12 12 12 12 12 12 12 12 12 13 13 13 13
13 17 8 6 7 2 5 8 9 8 7 5 6 8 9 8 10 11 17 21 23 21 20 22 21 20 19 18 17 17 16 15 14 14 13 12 12 12 12 12 12 12 12 12 12 12 13 13 12
9 9 6 7 7 3 6 7 6 5 5 5 5 6 9 7 7 14 19 21 23 21 21 22 21 20 19 18 17 17 16 15 14 14 13 12 12 12 12 13 13 12 12 12 12 12 12 11 10
10 7 7 9 8 3 6 5 4 4 4 5 5 9 10 8 11 17 18 21 22 21 21 21 21 20 19 17 17 16 16 15 14 14 13 12 12 12 12 12 12 12 12 11 11 11 11 10 9
8 8 8 8 5 2 5 4 3 4 4 3 2 8 8 8 11 14 16 19 20 22 21 21 20 20 18 17 16 16 15 15 14 13 13 13 12 12 12 12 12 12 12 11 11 11 10 9 7
11 11 12 11 5 2 4 4 4 4 3 2 1 6 8 8 9 13 15 17 19 21 20 18 19 18 18 17 16 15 15 14 14 13 13 13 12 12 12 12 11 11 11 11 11 10 9 8 7
11 11 14 10 4 3 3 3 3 3 3 2 2 4 9 9 11 13 15 15 16 19 19 17 18 17 17 16 16 16 15 14 13 13 13 13 12 12 12 12 11 10 10 9 9 9 8 7 6
13 11 10 9 5 3 4 4 3 1 0 2 4 7 13 17 16 15 14 14 14 17 17 17 17 16 16 16 16 16 15 14 14 13 13 13 12 12 12 13 11 10 9 8 7 7 7 6 6
10 10 10 9 6 5 6 6 5 4 1 2 7 11 15 16 17 17 16 16 16 17 16 14 17 15 15 15 15 14 13 14 13 12 13 11 10 11 13 15 12 10 9 8 7 6 7 7 7
12 14 11 9 7 7 8 8 6 4 2 1 7 13 15 16 16 16 16 16 15 15 13 14 15 13 12 10 12 10 10 12 11 12 11 8 7 10 12 10 10 9 10 8 8 8 8 8 6
12 14 12 10 9 9 9 9 8 4 2 2 6 14 16 17 16 15 15 15 14 13 12 13 12 10 9 10 8 8 7 7 7 11 9 6 3 4 6 6 8 9 8 7 7 6 3 2 4
12 13 13 12 11 10 10 9 7 3 1 3 6 11 15 15 14 12 11 12 12 12 11 11 11 9 7 6 6 8 6 7 8 10 8 6 3 3 4 4 4 4 5 5 3 2 3 1 1
13 13 13 14 13 11 10 9 4 1 2 3 5 8 12 13 14 12 11 11 11 11 11 11 11 10 8 6 4 4 5 6 8 8 9 7 4 4 3 3 2 2 3 2 1 3 3 2 1
15 15 15 15 15 9 8 8 1 3 4 3 4 6 9 11 12 12 11 11 12 12 11 11 11 10 9 8 6 5 5 7 5 7 9 6 5 6 3 3 3 2 5 4 1 2 3 3 3
16 16 16 15 12 8 8 7 3 5 5 3 5 7 8 9 11 11 11 10 11 12 12 12 13 12 10 7 6 4 4 5 5 7 8 6 6 7 3 2 3 4 4 4 2 2 3 2 2
16 15 16 12 8 7 8 8 4 6 5 4 6 8 10 10 9 10 10 10 10 11 12 11 10 11 10 8 6 4 3 4 5 7 7 6 6 7 4 2 3 3 2 2 3 3 1 1 2
15 13 12 9 6 7 9 8 3 6 5 6 7 9 9 11 10 10 10 10 11 11 11 11 10 10 10 8 6 4 5 4 4 5 7 6 6 6 3 3 4 3 2 2 2 3 1 0 1
17 17 15 11 8 9 10 10 6 5 4 4 7 8 10 10 11 10 11 11 11 10 11 12 12 11 9 8 8 6 6 5 4 5 8 6 5 6 2 2 4 2 1 3 3 2 2 2 2
16 15 16 13 11 11 12 13 4 1 2 4 7 9 11 11 11 11 10 11 11 11 11 12 12 12 11 8 7 6 6 4 4 4 6 7 6 7 6 2 3 3 2 3 1 1 0 3 2
17 15 16 15 14 13 12 10 3 2 3 6 7 8 10 12 13 13 12 11 10 11 12 12 12 12 11 9 7 6 5 4 4 5 5 5 6 6 2 4 1 3 3 4 3 3 3 2 2
16 15 15 16 14 13 11 9 4 5 7 7 8 8 9 10 11 12 12 12 11 11 12 11 11 11 11 10 10 11 8 7 7 6 6 5 5 5 5 4 2 1 0 5 4 4 2 1 2
16 16 15 15 14 15 11 10 3 5 6 8 9 8 9 10 11 11 11 10 10 10 11 11 11 11 11 10 11 10 8 7 6 6 8 7 5 4 5 5 4 2 1 3 2 3 0 1 2
14 15 15 14 12 12 11 10 6 5 5 6 9 10 9 9 10 10 9 9 9 9 10 11 12 11 10 10 10 10 10 9 8 9 9 7 5 5 5 6 4 3 2 4 2 2 2 1 2
14 12 11 12 9 7 8 7 7 6 6 6 9 11 10 10 10 10 10 10 10 10 10 10 11 11 11 10 10 10 10 9 10 9 9 8 7 6 6 6 5 3 3 4 3 2 1 2 1
14 15 13 13 8 3 1 7 7 3 7 8 10 11 11 11 10 10 10 10 10 10 10 11 11 10 10 9 9 9 8 7 7 8 7 6 5 6 8 7 6 4 5 5 3 3 3 2 1
17 16 17 16 15 10 6 5 5 1 6 8 9 11 11 11 11 11 11 10 9 9 10 10 10 10 9 8 7 8 8 7 7 8 7 5 4 7 9 8 7 5 4 3 4 2 2 4 3
16 15 10 11 12 12 6 3 2 3 3 6 10 10 11 10 11 12 11 11 10 9 10 10 10 9 9 9 8 8 7 8 7 7 6 5 5 5 8 8 7 6 5 4 3 3 3 3 3
13 15 13 10 10 11 9 1 3 6 7 5 10 13 13 12 12 12 12 11 11 11 11 10 10 9 9 8 7 8 8 7 7 6 6 5 5 5 6 6 6 6 6 5 5 4 4 5 4
13 13 12 11 11 11 10 2 5 7 7 7 8 13 14 13 12 13 13 12 12 12 11 11 11 10 9 9 8 8 8 8 8 7 6 6 6 5 5 5 5 6 6 6 6 6 5 5 5
Wind_Direction
230 237 233 246 256 256 341 49 61 55 55 53 48 49 58 62 69 103 131 135 123 126 131 132 130 129 129 128 128 128 127 125 123 121 118 114 110 105 101 98 96 94 93 91 91 92 93 94 95
252 251 244 247 257 285 49 54 59 60 59 62 61 56 65 64 79 111 127 128 126 129 136 134 133 131 130 129 129 129 128 127 125 123 119 116 112 109 105 101 99 97 96 95 94 95 96 97 98
261 266 267 246 245 274 58 57 64 75 76 61 68 64 67 67 81 114 129 135 130 132 132 132 136 134 132 131 131 131 130 129 127 124 120 117 113 110 107 104 101 98 96 96 97 98 100 101 103
261 258 252 265 286 22 60 60 63 77 83 71 70 79 79 66 92 121 135 138 130 131 131 136 138 136 135 135 135 134 134 132 130 126 123 120 116 112 108 105 102 99 98 98 98 100 103 106 107
250 261 268 285 299 24 58 55 46 60 72 62 76 94 89 81 101 124 141 136 136 135 133 139 140 139 138 139 139 137 136 134 131 129 126 121 118 115 110 105 103 101 98 98 100 103 106 112 114
260 254 263 277 290 24 64 69 42 44 74 62 73 104 101 106 114 135 144 140 140 136 134 139 142 142 142 142 141 140 139 137 135 134 131 125 121 117 114 109 107 104 100 100 102 105 110 117 124
263 281 280 279 277 33 51 48 35 24 55 63 52 100 107 108 126 144 143 139 137 134 136 143 145 146 146 146 146 145 143 141 140 139 136 132 129 125 121 116 114 110 107 105 105 107 113 121 133
264 285 298 304 314 35 43 21 31 8 25 72 30 97 125 139 153 153 147 141 135 138 142 147 150 150 152 152 152 149 147 146 144 144 143 142 141 140 136 129 123 118 115 113 114 118 124 133 148
263 270 294 300 320 360 4 350 346 335 64 90 56 82 138 154 158 157 150 143 140 143 146 156 152 155 158 156 153 153 152 152 151 153 156 158 163 157 155 134 134 132 130 128 131 141 149 158 175
246 263 278 298 331 334 334 324 308 297 275 131 122 120 143 154 159 161 160 155 153 153 156 157 153 160 163 157 152 160 163 161 171 163 171 186 179 155 142 142 147 149 150 151 162 175 182 194 190
249 266 285 302 313 320 312 307 304 305 321 103 150 150 157 161 164 167 167 164 161 157 155 154 155 162 160 144 156 166 167 164 181 166 177 186 162 140 139 153 158 169 174 181 176 197 212 193 185
253 273 287 292 303 300 296 300 304 322 4 104 150 157 164 168 171 174 172 166 162 159 153 155 152 155 149 147 157 162 161 167 169 162 182 166 163 150 143 154 170 179 185 178 186 205 193 151 161
255 266 275 282 286 285 288 285 290 325 148 135 143 158 167 171 171 176 166 157 157 161 156 154 148 143 137 137 162 164 160 167 158 155 177 164 167 150 132 134 147 180 154 169 207 160 135 106 72
276 279 283 284 276 272 278 283 296 293 212 144 157 168 164 169 170 172 162 160 160 162 157 150 144 138 138 147 168 152 157 148 149 158 163 174 160 127 123 141 154 183 156 131 166 126 143 189 171
277 280 279 272 265 261 279 283 280 206 216 173 159 158 160 163 168 169 166 166 164 161 156 152 151 150 153 163 178 165 161 153 149 148 152 167 149 130 140 150 176 177 140 133 174 175 185 197 177
272 267 266 263 255 248 259 282 190 198 219 183 154 158 163 156 170 167 164 160 158 158 159 162 167 161 161 166 182 167 167 143 141 140 145 154 134 136 154 171 169 152 158 166 173 221 209 185 174
262 259 261 260 232 256 272 287 177 193 211 186 167 162 160 157 167 160 163 159 155 155 157 163 163 162 164 167 179 171 142 129 137 142 139 149 154 150 178 151 121 179 179 182 205 161 151 164 176
266 272 271 263 234 261 283 289 229 196 205 186 166 162 160 165 171 164 161 159 156 160 164 165 165 166 165 168 172 164 144 145 148 137 130 149 166 158 181 159 143 217 190 153 79 90 76 57 206
275 289 295 293 285 282 288 290 260 211 203 178 165 164 167 170 169 162 162 165 162 166 171 170 171 171 169 172 170 166 161 161 156 143 137 160 169 154 197 144 144 227 162 117 129 135 168 230 215
276 282 285 287 282 281 291 292 286 278 182 173 177 177 176 173 168 162 164 169 170 171 175 172 172 172 175 175 169 165 153 164 161 138 144 164 164 167 184 151 182 164 122 125 136 112 219 240 197
268 270 275 283 288 287 286 285 262 196 217 182 184 177 174 172 170 167 171 176 177 176 179 178 173 174 175 170 163 159 153 169 157 148 158 165 168 179 146 146 201 146 176 154 176 187 220 246 212
266 265 270 277 282 283 291 287 218 207 204 198 177 168 167 166 167 169 174 179 181 181 179 174 172 172 172 170 168 169 172 177 175 164 153 155 164 163 155 164 145 151 195 140 195 176 213 227 245
268 273 275 277 276 280 285 286 254 203 202 191 178 165 153 157 166 168 173 174 174 176 173 173 168 168 171 175 174 174 176 176 168 155 146 157 158 166 165 157 147 169 225 136 95 100 275 287 270
262 271 273 271 272 270 280 275 259 207 189 168 160 146 147 153 154 156 161 159 167 173 173 172 167 170 173 175 175 177 180 177 168 157 157 167 160 174 170 156 153 179 169 120 124 124 208 285 340
243 249 259 254 248 262 311 288 250 190 150 141 140 142 147 147 151 152 159 161 168 175 176 171 167 170 174 176 178 181 179 175 170 165 168 175 167 172 168 156 159 173 133 144 161 176 244 203 251
246 239 247 266 271 276 307 273 271 164 125 124 131 138 146 151 152 152 156 157 161 168 172 169 163 163 168 175 179 179 173 174 173 175 169 182 174 165 156 149 166 167 163 178 160 197 194 173 196
248 249 252 264 269 265 214 227 263 270 136 138 135 145 152 150 145 145 149 155 156 161 162 159 152 157 166 170 170 171 170 176 175 170 171 174 161 152 153 159 166 169 176 171 150 233 191 141 198
239 252 257 263 276 281 256 225 297 308 238 169 152 157 147 149 150 146 151 155 155 153 150 149 150 156 162 168 171 170 170 176 174 170 169 159 155 145 155 165 167 170 171 176 195 224 177 174 224
224 239 255 273 275 280 286 255 201 261 259 211 171 159 149 157 153 147 146 147 151 151 152 152 154 156 159 163 166 162 163 165 164 165 158 153 148 152 165 171 171 175 177 183 203 240 187 197 222
241 236 241 253 269 279 286 254 179 220 235 211 175 150 147 150 147 146 145 147 151 153 154 154 156 159 160 160 158 157 159 163 167 164 163 159 161 171 178 178 180 192 189 186 197 226 211 196 212
Height
1490 1489 1489 1493 1491 1490 1481 1468 1463 1466 1468 1470 1471 1472 1474 1477 1484 1496 1495 1496 1498 1499 1504 1508 1511 1514 1516 1519 1522 1524 1526 1528 1530 1532 1534 1535 1536 1538 1539 1540 1541 1542 1542 1543 1544 1544 1545 1546 1547
1489 1490 1493 1490 1491 1493 1480 1466 1466 1468 1470 1472 1472 1473 1475 1479 1484 1490 1494 1497 1498 1501 1505 1508 1512 1515 1517 1520 1522 1525 1527 1530 1532 1533 1535 1537 1538 1539 1540 1541 1542 1543 1544 1545 1546 1546 1547 1548 1549
1489 1491 1491 1483 1485 1482 1475 1465 1466 1467 1470 1472 1473 1475 1479 1484 1487 1491 1495 1498 1500 1502 1506 1509 1512 1515 1518 1521 1523 1526 1528 1531 1533 1535 1537 1538 1540 1541 1542 1543 1544 1545 1546 1547 1547 1548 1549 1550 1551
1492 1491 1487 1480 1476 1464 1462 1462 1464 1467 1470 1472 1474 1477 1482 1486 1488 1492 1495 1499 1501 1504 1507 1510 1513 1516 1519 1522 1524 1527 1529 1532 1534 1536 1538 1540 1541 1543 1544 1545 1546 1547 1548 1549 1549 1550 1551 1552 1553
1493 1489 1486 1483 1472 1459 1458 1462 1465 1467 1470 1472 1474 1479 1485 1489 1490 1493 1496 1499 1502 1505 1507 1511 1514 1517 1520 1523 1525 1528 1531 1533 1535 1537 1539 1541 1542 1544 1545 1546 1548 1549 1550 1551 1551 1552 1553 1554 1555
1491 1483 1488 1484 1471 1459 1459 1462 1464 1466 1470 1473 1474 1478 1487 1490 1491 1494 1498 1500 1503 1505 1508 1512 1515 1518 1521 1524 1526 1529 1531 1534 1536 1538 1540 1542 1544 1545 1547 1548 1549 1550 1551 1552 1553 1554 1555 1556 1557
1489 1481 1481 1474 1467 1462 1460 1462 1464 1467 1469 1473 1475 1479 1487 1490 1493 1495 1498 1502 1504 1506 1508 1512 1515 1519 1522 1525 1527 1530 1532 1535 1537 1539 1541 1543 1545 1546 1548 1549 1551 1552 1553 1554 1555 1556 1557 1558 1559
1486 1481 1478 1471 1466 1464 1460 1462 1465 1467 1469 1473 1475 1479 1487 1490 1493 1495 1499 1502 1505 1506 1509 1512 1516 1519 1522 1525 1528 1531 1533 1536 1538 1540 1542 1544 1546 1548 1549 1550 1552 1553 1554 1555 1556 1558 1558 1559 1560
1484 1483 1482 1473 1465 1462 1460 1462 1464 1466 1468 1471 1476 1478 1484 1487 1492 1495 1499 1502 1504 1507 1509 1512 1516 1519 1522 1525 1529 1531 1534 1536 1539 1541 1543 1545 1547 1549 1550 1552 1553 1554 1555 1557 1558 1559 1560 1561 1562
1479 1480 1476 1464 1460 1460 1461 1462 1463 1465 1466 1471 1475 1479 1482 1487 1490 1493 1496 1500 1503 1506 1509 1513 1516 1519 1523 1527 1529 1532 1534 1537 1539 1542 1544 1546 1548 1550 1551 1553 1554 1555 1556 1558 1559 1560 1561 1562 1563
1474 1472 1465 1462 1460 1461 1461 1461 1461 1463 1466 1470 1473 1478 1481 1485 1488 1491 1494 1498 1502 1504 1509 1512 1515 1519 1524 1526 1529 1532 1535 1537 1540 1542 1545 1547 1549 1551 1552 1553 1555 1556 1557 1558 1560 1561 1562 1563 1564
1470 1467 1464 1462 1461 1461 1461 1460 1461 1462 1466 1469 1471 1475 1479 1482 1486 1489 1493 1497 1500 1503 1508 1512 1514 1518 1523 1526 1529 1532 1535 1538 1540 1542 1545 1547 1550 1551 1553 1554 1555 1556 1557 1559 1560 1561 1563 1564 1565
1467 1465 1463 1461 1460 1459 1459 1459 1460 1463 1466 1468 1471 1474 1477 1480 1484 1488 1492 1495 1499 1502 1506 1510 1514 1518 1522 1525 1529 1532 1535 1538 1540 1542 1544 1547 1549 1551 1553 1554 1555 1557 1558 1559 1560 1562 1563 1564 1565
1464 1462 1461 1460 1458 1457 1456 1456 1458 1463 1465 1467 1471 1473 1476 1479 1483 1486 1489 1493 1496 1500 1504 1507 1511 1516 1520 1523 1528 1531 1534 1537 1540 1542 1544 1546 1549 1550 1552 1554 1555 1556 1558 1559 1560 1561 1562 1564 1565
1465 1463 1461 1458 1454 1453 1455 1457 1458 1461 1463 1465 1468 1472 1475 1478 1482 1484 1487 1490 1493 1498 1502 1506 1510 1514 1519 1523 1527 1531 1534 1537 1539 1541 1543 1546 1548 1549 1551 1553 1554 1556 1557 1558 1559 1561 1562 1563 1564
1463 1464 1466 1455 1450 1450 1456 1462 1456 1459 1461 1463 1467 1471 1475 1478 1481 1484 1486 1489 1492 1495 1500 1504 1509 1513 1517 1521 1526 1530 1533 1536 1538 1540 1542 1545 1546 1548 1550 1552 1553 1555 1556 1558 1559 1560 1562 1563 1564
1465 1468 1464 1454 1447 1446 1450 1455 1452 1456 1458 1461 1465 1469 1473 1477 1480 1483 1486 1488 1491 1494 1498 1502 1507 1511 1515 1519 1524 1528 1531 1534 1537 1539 1541 1543 1546 1547 1549 1551 1552 1554 1556 1557 1559 1560 1561 1562 1563
1467 1461 1457 1453 1445 1445 1448 1449 1448 1452 1454 1458 1463 1467 1472 1475 1479 1482 1485 1487 1490 1493 1497 1500 1505 1509 1513 1517 1522 1526 1529 1532 1535 1538 1540 1542 1545 1546 1548 1550 1551 1553 1555 1556 1557 1558 1560 1561 1562
1454 1455 1455 1449 1441 1444 1447 1447 1445 1448 1452 1456 1461 1465 1470 1474 1478 1480 1483 1486 1489 1491 1495 1498 1502 1506 1510 1514 1519 1523 1527 1530 1534 1537 1538 1541 1543 1545 1547 1549 1550 1552 1554 1555 1556 1557 1559 1560 1562
1453 1458 1456 1448 1441 1443 1446 1446 1443 1446 1450 1455 1459 1463 1467 1471 1475 1479 1481 1483 1487 1489 1492 1496 1500 1503 1508 1512 1516 1521 1524 1529 1532 1535 1537 1539 1542 1544 1546 1547 1549 1551 1552 1553 1555 1556 1558 1560 1561
1455 1457 1455 1452 1444 1441 1446 1451 1448 1448 1451 1454 1456 1460 1464 1468 1472 1476 1479 1481 1485 1487 1490 1493 1497 1501 1506 1510 1514 1518 1523 1527 1531 1533 1535 1538 1540 1543 1545 1546 1548 1550 1551 1552 1553 1555 1557 1559 1560
1457 1448 1447 1448 1453 1454 1451 1466 1455 1449 1451 1451 1454 1457 1461 1466 1469 1474 1477 1480 1482 1484 1488 1491 1495 1499 1504 1508 1511 1515 1519 1523 1527 1531 1533 1536 1539 1541 1543 1545 1547 1548 1550 1551 1552 1554 1556 1557 1559
1448 1442 1444 1446 1451 1456 1454 1465 1459 1448 1449 1448 1449 1453 1458 1463 1468 1471 1475 1478 1480 1483 1485 1488 1492 1497 1501 1505 1509 1513 1518 1522 1526 1529 1531 1534 1537 1540 1542 1543 1545 1547 1549 1550 1551 1552 1554 1556 1557
1442 1444 1445 1447 1453 1472 1466 1470 1466 1445 1443 1442 1445 1451 1457 1462 1466 1470 1474 1476 1479 1482 1484 1487 1490 1494 1498 1502 1506 1510 1515 1520 1523 1526 1529 1533 1535 1538 1540 1542 1543 1545 1547 1548 1550 1551 1553 1554 1556
1442 1455 1468 1471 1475 1480 1470 1472 1460 1436 1433 1436 1441 1449 1455 1461 1465 1469 1472 1475 1478 1480 1483 1485 1488 1492 1496 1500 1504 1508 1513 1517 1521 1524 1528 1531 1534 1536 1538 1541 1542 1544 1546 1547 1548 1550 1552 1553 1554
1441 1448 1468 1478 1478 1479 1478 1481 1453 1430 1432 1436 1441 1448 1454 1459 1464 1468 1471 1473 1476 1478 1480 1483 1486 1490 1494 1498 1502 1507 1511 1515 1519 1523 1527 1530 1532 1535 1537 1539 1541 1543 1544 1546 1547 1549 1550 1551 1553
1442 1442 1437 1449 1454 1470 1471 1463 1449 1435 1435 1437 1441 1447 1452 1457 1462 1466 1470 1472 1475 1477 1479 1482 1485 1489 1492 1496 1500 1505 1508 1512 1517 1521 1525 1528 1531 1533 1535 1537 1539 1541 1543 1545 1546 1548 1549 1551 1552
1431 1433 1439 1449 1463 1469 1463 1465 1464 1448 1442 1437 1441 1446 1450 1456 1460 1464 1468 1471 1474 1476 1479 1482 1485 1488 1492 1495 1499 1503 1507 1511 1515 1519 1523 1526 1529 1532 1534 1536 1538 1540 1542 1543 1545 1547 1548 1549 1550
1432 1437 1439 1441 1443 1458 1467 1468 1451 1448 1441 1438 1439 1443 1448 1454 1458 1463 1467 1471 1474 1476 1479 1482 1485 1488 1491 1495 1498 1503 1506 1510 1514 1518 1521 1524 1527 1530 1532 1534 1536 1538 1540 1542 1544 1545 1547 1548 1549
1423 1429 1436 1452 1451 1445 1452 1458 1439 1440 1437 1436 1437 1440 1445 1451 1456 1461 1466 1469 1473 1476 1479 1482 1485 1488 1491 1494 1498 1502 1506 1509 1513 1516 1520 1523 1525 1528 1531 1533 1535 1537 1539 1540 1542 1544 1545 1546 1547